Regional Weather Roundup
Issued by NWS

Home | Current Version | Previous Version | Text Only | Print | Product List | Glossary On
Versions: 1 2 3 4 5 6 7 8 9 10 11 12 13 14 15 16 17 18 19 20 21 22 23 24 25 26 27 28 29 30 31 32 33 34 35 36 37 38 39 40 41 42 43 44 45 46 47 48 49 50
000
ASUS43 KOAX 051110
RWRNE

WEATHER ROUNDUP FOR NEBRASKA
NATIONAL WEATHER SERVICE OMAHA NE
500 AM CST MON DEC 05 2016

NOTES: SATELLITE DATA IS BEING USED TO AUGMENT CLOUD COVER ABOVE
       12000 FEET.
       "FAIR" INDICATES FEW OR NO CLOUDS BELOW 12,000 FEET WITH NO
       SIGNIFICANT WEATHER AND/OR OBSTRUCTIONS TO VISIBILITY.

  * THESE STATIONS DO NOT REPORT WEATHER SUCH AS RAIN...SNOW OR FOG.

NEZ001>004-019>022-054>056-051200-
NEBRASKA PANHANDLE

CITY           SKY/WX    TMP DP  RH WIND       PRES   REMARKS
SCOTTSBLUFF    CLOUDY    41  21  44 W6        29.56F
ALLIANCE       CLOUDY    41  21  44 SW9       29.54F
CHADRON        PTCLDY    45  22  40 SW14      29.51F
KIMBALL        CLOUDY    31  22  68 W10       29.59F WCI  22
SIDNEY         CLOUDY    38  17  42 VRB5      29.59F WCI  34
$$

NEZ057>060-069>072-079>082-051200-
SOUTHWEST NEBRASKA

CITY           SKY/WX    TMP DP  RH WIND       PRES   REMARKS
NORTH PLATTE   CLOUDY    35  20  54 CALM      29.63F
IMPERIAL       CLOUDY    30  18  60 SE7       29.61F WCI  23
LEXINGTON      PTCLDY    36  22  56 S5        29.67F WCI  32
MCCOOK         CLOUDY    31  19  61 S5        29.64F WCI  26
OGALLALA       CLOUDY    35  22  58 CALM      29.59F
$$

NEZ005>010-023>029-035>040-094-051200-
NORTH CENTRAL NEBRASKA

CITY           SKY/WX    TMP DP  RH WIND       PRES   REMARKS
VALENTINE      CLOUDY    37  19  48 SW12      29.53F WCI  29
AINSWORTH      CLOUDY    37  20  50 SW7       29.55F WCI  32
BROKEN BOW     CLOUDY    36  21  54 S5        29.64F WCI  32
O`NEILL        CLOUDY    37  22  54 S10       29.60F WCI  30
ORD            PTCLDY    37  20  50 S7        29.65S WCI  32
THEDFORD       CLOUDY    46  20  35 SW8       29.57F
$$

NEZ041-046>049-061>064-073>077-083>087-051200-
SOUTH CENTRAL NEBRASKA

CITY           SKY/WX    TMP DP  RH WIND       PRES   REMARKS
GRAND ISLAND   PTCLDY    36  27  69 S14       29.70F WCI  27
AURORA         PTCLDY    35  28  73 S13       29.71F WCI  27
HASTINGS       PTCLDY    38  26  62 S7G20     29.72F WCI  33
HEBRON         PTCLDY    35  28  75 S9        29.77F WCI  27
HOLDREGE       PTCLDY    35  24  64 S10       29.68F WCI  27
KEARNEY *      PTCLDY    34  23  64 S12       29.69F WCI  25
YORK           PTCLDY    34  28  80 S13G20    29.73F WCI  25
$$

NEZ011>018-030>034-042>045-051200-
NORTHEAST NEBRASKA

CITY           SKY/WX    TMP DP  RH WIND       PRES   REMARKS
NORFOLK        CLOUDY    36  26  67 S21G28    29.66F WCI  25
ALBION         CLOUDY    35  27  72 SE8       29.67F WCI  29
BLAIR          PTCLDY    34  31  89 S9        29.77F WCI  26
FREMONT        PTCLDY    33  29  83 SE5       29.77F WCI  29
TEKAMAH        CLOUDY    31  29  92 SE8       29.77F WCI  23
WAYNE          PTCLDY    37  30  78 S8        29.69S WCI  30
$$

NEZ050>053-065>068-078-088>093-051200-
SOUTHEAST NEBRASKA

CITY           SKY/WX    TMP DP  RH WIND       PRES   REMARKS
LINCOLN        PTCLDY    34  30  85 S13       29.78F WCI  25
OMAHA EPPLEY   CLOUDY    33  29  85 SE9       29.80F WCI  25
BEATRICE       CLOUDY    33  30  87 SE6       29.80F WCI  28
FALLS CITY     CLOUDY    33  30  88 S8        29.85F WCI  26
NEBRASKA CITY  PTCLDY    35  31  85 S10       29.82F WCI  27
PLATTSMOUTH    MOCLDY    34  29  83 SE13      29.80F WCI  25
$$

NEZ044-045-051>053-067-051200-
OMAHA AREA

CITY           SKY/WX    TMP DP  RH WIND       PRES   REMARKS
OMAHA EPPLEY   CLOUDY    33  29  85 SE9       29.80F WCI  25
BLAIR          PTCLDY    34  31  89 S9        29.77F WCI  26
FREMONT        PTCLDY    33  29  83 SE5       29.77F WCI  29
MILLARD        CLOUDY    33  31  93 CALM      29.80F
OFFUTT AFB     PTCLDY    33  33 100 SE7       29.80F WCI  27
PLATTSMOUTH    MOCLDY    34  29  83 SE13      29.80F WCI  25
WAHOO          FAIR      32  29  88 S12       29.76F WCI  23
$$




USA.gov is the U.S. government's official web portal to all federal, state and local government web resources and services.